Time,TemperatureF,DewpointF,PressureIn,WindDirection,WindDirectionDegrees,WindSpeedMPH,WindSpeedGustMPH,Humidity,HourlyPrecipIn,Conditions,Clouds,dailyrainin,SoftwareType,DateUTC
2013-01-10 00:01:00,58.1,45.6,29.21,NNE,17,2.6,3.8,63,0.00,,,0.00,WSDL version 420,2013-01-10 05:01:00,
2013-01-10 00:03:00,58.1,45.6,29.21,NW,323,1.2,3.8,63,0.00,,,0.00,WSDL version 420,2013-01-10 05:03:00,
2013-01-10 00:07:00,58.0,45.5,29.21,NE,45,2.5,3.4,63,0.00,,,0.00,WSDL version 420,2013-01-10 05:07:00,
2013-01-10 00:09:00,57.9,45.4,29.21,NE,34,0.8,3.4,63,0.00,,,0.00,WSDL version 420,2013-01-10 05:09:00,
2013-01-10 00:13:00,57.6,45.0,29.18,NW,315,0.0,2.9,63,0.00,,,0.00,WSDL version 420,2013-01-10 05:13:00,
2013-01-10 00:17:00,57.3,44.8,29.18,North,360,0.0,2.2,63,0.00,,,0.00,WSDL version 420,2013-01-10 05:17:00,
2013-01-10 00:19:00,57.2,44.7,29.18,NNE,17,0.7,2.2,63,0.00,,,0.00,WSDL version 420,2013-01-10 05:19:00,
2013-01-10 00:25:00,56.9,44.4,29.18,ESE,107,0.0,2.2,63,0.00,,,0.00,WSDL version 420,2013-01-10 05:25:00,
2013-01-10 00:27:00,56.7,44.3,29.18,SW,225,0.0,1.6,64,0.00,,,0.00,WSDL version 420,2013-01-10 05:27:00,
2013-01-10 00:33:00,56.3,44.4,29.18,ESE,113,0.0,2.0,65,0.00,,,0.00,WSDL version 420,2013-01-10 05:33:00,
2013-01-10 00:35:00,56.3,44.5,29.18,ENE,59,0.0,2.0,65,0.00,,,0.00,WSDL version 420,2013-01-10 05:35:00,
2013-01-10 00:40:00,56.3,44.7,29.18,SE,143,0.0,1.6,65,0.00,,,0.00,WSDL version 420,2013-01-10 05:40:00,
2013-01-10 00:43:00,56.0,44.4,29.18,South,180,0.5,2.5,65,0.00,,,0.00,WSDL version 420,2013-01-10 05:43:00,
2013-01-10 00:45:00,55.9,44.3,29.18,South,180,0.0,2.5,65,0.00,,,0.00,WSDL version 420,2013-01-10 05:45:00,
2013-01-10 00:51:00,55.9,44.5,29.18,North,8,0.0,0.0,66,0.00,,,0.00,WSDL version 420,2013-01-10 05:51:00,
2013-01-10 00:57:00,55.9,44.8,29.21,NNE,23,0.0,0.0,66,0.00,,,0.00,WSDL version 420,2013-01-10 05:57:00,
2013-01-10 01:03:00,56.1,44.9,29.21,NNW,338,0.4,2.9,66,0.00,,,0.00,WSDL version 420,2013-01-10 06:03:00,
2013-01-10 01:05:00,56.1,44.9,29.21,SE,129,0.7,2.9,66,0.00,,,0.00,WSDL version 420,2013-01-10 06:05:00,
2013-01-10 01:07:00,56.1,44.9,29.21,SSW,203,0.0,2.9,66,0.00,,,0.00,WSDL version 420,2013-01-10 06:07:00,
2013-01-10 01:11:00,56.1,44.9,29.18,NNE,30,0.0,2.5,66,0.00,,,0.00,WSDL version 420,2013-01-10 06:11:00,
2013-01-10 01:13:00,56.1,44.9,29.18,North,360,0.0,2.5,66,0.00,,,0.00,WSDL version 420,2013-01-10 06:13:00,
2013-01-10 01:15:00,56.1,44.9,29.18,NE,51,0.0,0.0,66,0.00,,,0.00,WSDL version 420,2013-01-10 06:15:00,
2013-01-10 01:19:00,56.2,45.0,29.18,NNE,23,2.2,3.1,66,0.00,,,0.00,WSDL version 420,2013-01-10 06:19:00,
2013-01-10 01:21:00,56.2,45.0,29.18,ENE,68,1.8,3.1,66,0.00,,,0.00,WSDL version 420,2013-01-10 06:21:00,
2013-01-10 01:27:00,56.5,45.3,29.18,NNE,23,2.3,4.0,66,0.00,,,0.00,WSDL version 420,2013-01-10 06:27:00,
2013-01-10 01:29:00,56.5,45.3,29.18,NE,45,2.5,4.0,66,0.00,,,0.00,WSDL version 420,2013-01-10 06:29:00,
2013-01-10 01:35:00,56.7,45.3,29.18,West,270,0.0,4.0,65,0.00,,,0.00,WSDL version 420,2013-01-10 06:35:00,
2013-01-10 01:37:00,56.7,45.2,29.18,West,259,0.0,2.9,65,0.00,,,0.00,WSDL version 420,2013-01-10 06:37:00,
2013-01-10 01:41:00,56.6,45.0,29.18,West,278,0.0,1.6,65,0.00,,,0.00,WSDL version 420,2013-01-10 06:41:00,
2013-01-10 01:43:00,56.5,44.9,29.18,WNW,293,0.0,1.6,65,0.00,,,0.00,WSDL version 420,2013-01-10 06:43:00,
2013-01-10 01:47:00,56.5,44.9,29.18,SW,225,0.9,1.6,65,0.00,,,0.00,WSDL version 420,2013-01-10 06:47:00,
2013-01-10 01:51:00,56.4,44.8,29.18,South,180,0.0,0.0,65,0.00,,,0.00,WSDL version 420,2013-01-10 06:51:00,
2013-01-10 01:53:00,56.2,44.6,29.18,South,180,0.0,0.0,65,0.00,,,0.00,WSDL version 420,2013-01-10 06:53:00,
2013-01-10 01:57:00,56.1,44.5,29.21,North,360,0.3,2.5,65,0.00,,,0.00,WSDL version 420,2013-01-10 06:57:00,
2013-01-10 01:59:00,56.1,44.6,29.21,NNW,338,1.4,3.1,66,0.00,,,0.00,WSDL version 420,2013-01-10 06:59:00,
2013-01-10 02:01:00,56.3,44.9,29.21,North,360,2.2,3.1,66,0.00,,,0.00,WSDL version 420,2013-01-10 07:01:00,
2013-01-10 02:03:00,56.4,45.2,29.21,North,360,2.5,3.1,66,0.00,,,0.00,WSDL version 420,2013-01-10 07:03:00,
2013-01-10 02:07:00,56.4,45.0,29.21,NW,326,1.0,3.1,65,0.00,,,0.00,WSDL version 420,2013-01-10 07:07:00,
2013-01-10 02:11:00,56.4,45.0,29.18,North,353,2.2,2.7,66,0.00,,,0.00,WSDL version 420,2013-01-10 07:11:00,
2013-01-10 02:15:00,56.4,45.1,29.18,North,360,1.3,2.7,66,0.00,,,0.00,WSDL version 420,2013-01-10 07:15:00,
2013-01-10 02:19:00,56.3,44.9,29.18,South,180,0.0,2.7,65,0.00,,,0.00,WSDL version 420,2013-01-10 07:19:00,
2013-01-10 02:25:00,55.9,44.3,29.18,NW,315,0.0,0.0,65,0.00,,,0.00,WSDL version 420,2013-01-10 07:25:00,
2013-01-10 02:27:00,55.9,44.5,29.18,NW,315,0.0,0.0,66,0.00,,,0.00,WSDL version 420,2013-01-10 07:27:00,
2013-01-10 02:33:00,56.0,44.9,29.18,NW,315,0.0,0.0,66,0.00,,,0.00,WSDL version 420,2013-01-10 07:33:00,
2013-01-10 02:37:00,56.3,45.1,29.18,SW,234,0.0,0.0,66,0.00,,,0.00,WSDL version 420,2013-01-10 07:37:00,
2013-01-10 02:39:00,56.2,45.0,29.18,South,186,0.0,0.0,66,0.00,,,0.00,WSDL version 420,2013-01-10 07:39:00,
2013-01-10 02:43:00,56.0,44.8,29.18,South,180,0.0,0.0,66,0.00,,,0.00,WSDL version 420,2013-01-10 07:43:00,
2013-01-10 02:45:00,55.9,44.8,29.18,SSW,203,0.0,0.0,66,0.00,,,0.00,WSDL version 420,2013-01-10 07:45:00,
2013-01-10 02:51:00,56.1,45.2,29.18,SSW,212,0.0,0.0,67,0.00,,,0.00,WSDL version 420,2013-01-10 07:51:00,
2013-01-10 02:53:00,56.2,45.4,29.18,SSW,203,0.0,0.0,67,0.00,,,0.00,WSDL version 420,2013-01-10 07:53:00,
2013-01-10 02:57:00,56.1,45.1,29.18,SSW,195,0.0,0.0,66,0.00,,,0.00,WSDL version 420,2013-01-10 07:57:00,
2013-01-10 02:59:00,56.0,44.9,29.18,West,270,0.0,0.0,67,0.00,,,0.00,WSDL version 420,2013-01-10 07:59:00,
2013-01-10 03:01:00,56.0,45.0,29.18,SSW,197,0.0,0.0,67,0.00,,,0.00,WSDL version 420,2013-01-10 08:01:00,
2013-01-10 03:05:00,56.0,45.0,29.18,South,180,0.0,0.0,66,0.00,,,0.00,WSDL version 420,2013-01-10 08:05:00,
2013-01-10 03:09:00,55.7,44.6,29.18,South,180,0.0,0.0,66,0.00,,,0.00,WSDL version 420,2013-01-10 08:09:00,
2013-01-10 03:11:00,55.6,44.7,29.18,SW,219,0.0,0.0,67,0.00,,,0.00,WSDL version 420,2013-01-10 08:11:00,
2013-01-10 03:13:00,55.6,44.7,29.18,North,354,0.0,0.0,67,0.00,,,0.00,WSDL version 420,2013-01-10 08:13:00,
2013-01-10 03:19:00,55.7,44.9,29.18,SSW,195,0.0,0.0,67,0.00,,,0.00,WSDL version 420,2013-01-10 08:19:00,
2013-01-10 03:21:00,55.7,44.9,29.18,South,180,0.0,0.0,67,0.00,,,0.00,WSDL version 420,2013-01-10 08:21:00,
2013-01-10 03:27:00,55.4,44.6,29.18,East,90,0.0,0.0,67,0.00,,,0.00,WSDL version 420,2013-01-10 08:27:00,
2013-01-10 03:29:00,55.3,44.5,29.18,North,360,0.0,0.0,67,0.00,,,0.00,WSDL version 420,2013-01-10 08:29:00,
2013-01-10 03:33:00,55.0,44.5,29.18,ENE,60,0.0,0.0,68,0.00,,,0.00,WSDL version 420,2013-01-10 08:33:00,
2013-01-10 03:35:00,55.0,44.6,29.18,South,180,0.0,0.0,68,0.00,,,0.00,WSDL version 420,2013-01-10 08:35:00,
2013-01-10 03:39:00,55.0,44.7,29.18,NE,41,0.0,0.0,68,0.00,,,0.00,WSDL version 420,2013-01-10 08:39:00,
2013-01-10 03:43:00,55.0,44.7,29.18,South,169,0.0,0.0,68,0.00,,,0.00,WSDL version 420,2013-01-10 08:43:00,
2013-01-10 03:45:00,55.0,44.6,29.18,SSE,158,0.0,0.0,68,0.00,,,0.00,WSDL version 420,2013-01-10 08:45:00,
2013-01-10 03:47:00,54.9,44.5,29.18,SSE,158,0.0,0.0,68,0.00,,,0.00,WSDL version 420,2013-01-10 08:47:00,
2013-01-10 03:53:00,55.1,45.0,29.18,South,188,0.0,0.0,69,0.00,,,0.00,WSDL version 420,2013-01-10 08:53:00,
2013-01-10 03:57:00,55.0,44.9,29.18,SSW,203,0.0,0.0,68,0.00,,,0.00,WSDL version 420,2013-01-10 08:57:00,
2013-01-10 04:01:00,54.7,44.5,29.18,WSW,248,0.0,0.0,69,0.00,,,0.00,WSDL version 420,2013-01-10 09:01:00,
2013-01-10 04:03:00,54.8,44.8,29.18,SSW,208,0.0,0.0,69,0.00,,,0.00,WSDL version 420,2013-01-10 09:03:00,
2013-01-10 04:07:00,55.0,45.0,29.18,South,180,0.0,0.0,69,0.00,,,0.00,WSDL version 420,2013-01-10 09:07:00,
2013-01-10 04:09:00,54.8,44.9,29.18,South,180,0.0,0.0,69,0.00,,,0.00,WSDL version 420,2013-01-10 09:09:00,
2013-01-10 04:13:00,54.5,44.6,29.18,SSE,158,0.0,0.0,69,0.00,,,0.00,WSDL version 420,2013-01-10 09:13:00,
2013-01-10 04:15:00,54.5,44.6,29.18,WNW,293,0.0,0.0,69,0.00,,,0.00,WSDL version 420,2013-01-10 09:15:00,
2013-01-10 04:17:00,54.6,44.8,29.18,South,191,0.0,0.0,70,0.00,,,0.00,WSDL version 420,2013-01-10 09:17:00,
2013-01-10 04:19:00,54.7,45.0,29.18,SSW,203,0.0,0.0,70,0.00,,,0.00,WSDL version 420,2013-01-10 09:19:00,
2013-01-10 04:21:00,54.7,45.1,29.18,SSW,208,0.0,0.0,70,0.00,,,0.00,WSDL version 420,2013-01-10 09:21:00,
2013-01-10 04:23:00,54.8,45.2,29.18,SSW,195,0.0,0.0,70,0.00,,,0.00,WSDL version 420,2013-01-10 09:23:00,
2013-01-10 04:27:00,55.0,45.4,29.21,NNE,23,0.0,0.0,70,0.00,,,0.00,WSDL version 420,2013-01-10 09:27:00,
2013-01-10 04:29:00,55.0,45.4,29.21,ENE,59,0.0,0.0,70,0.00,,,0.00,WSDL version 420,2013-01-10 09:29:00,
2013-01-10 04:31:00,55.0,45.4,29.21,South,176,0.0,0.0,70,0.00,,,0.00,WSDL version 420,2013-01-10 09:31:00,
2013-01-10 04:35:00,55.0,45.4,29.21,ENE,68,0.0,0.0,70,0.00,,,0.00,WSDL version 420,2013-01-10 09:35:00,
2013-01-10 04:37:00,55.0,45.4,29.21,NE,34,0.0,0.0,70,0.00,,,0.00,WSDL version 420,2013-01-10 09:37:00,
2013-01-10 04:39:00,55.1,45.5,29.21,North,360,0.0,0.0,70,0.00,,,0.00,WSDL version 420,2013-01-10 09:39:00,
2013-01-10 04:45:00,55.8,46.2,29.18,North,0,0.0,3.6,70,0.00,,,0.00,WSDL version 420,2013-01-10 09:45:00,
2013-01-10 04:47:00,56.0,46.4,29.18,North,360,2.5,3.6,70,0.00,,,0.00,WSDL version 420,2013-01-10 09:47:00,
2013-01-10 04:53:00,56.2,46.5,29.18,NNE,14,0.0,2.9,69,0.00,,,0.00,WSDL version 420,2013-01-10 09:53:00,
2013-01-10 04:55:00,56.2,46.3,29.18,North,360,3.1,3.8,69,0.00,,,0.00,WSDL version 420,2013-01-10 09:55:00,
2013-01-10 04:57:00,56.2,46.2,29.18,NNE,23,3.4,3.8,69,0.00,,,0.00,WSDL version 420,2013-01-10 09:57:00,
2013-01-10 04:59:00,56.2,46.2,29.18,North,11,1.7,3.8,69,0.00,,,0.00,WSDL version 420,2013-01-10 09:59:00,
2013-01-10 05:01:00,56.2,46.2,29.18,North,360,2.9,4.0,69,0.00,,,0.00,WSDL version 420,2013-01-10 10:01:00,
2013-01-10 05:05:00,56.2,46.1,29.18,NNW,338,0.0,4.0,69,0.00,,,0.00,WSDL version 420,2013-01-10 10:05:00,
2013-01-10 05:07:00,56.0,46.0,29.18,NE,34,1.1,4.0,69,0.00,,,0.00,WSDL version 420,2013-01-10 10:07:00,
2013-01-10 05:09:00,55.9,45.9,29.18,NW,309,0.2,4.0,69,0.00,,,0.00,WSDL version 420,2013-01-10 10:09:00,
2013-01-10 05:13:00,55.7,45.4,29.18,South,189,0.0,2.7,68,0.00,,,0.00,WSDL version 420,2013-01-10 10:13:00,
2013-01-10 05:17:00,55.3,45.0,29.18,WNW,285,0.0,0.0,69,0.00,,,0.00,WSDL version 420,2013-01-10 10:17:00,
2013-01-10 05:21:00,55.2,45.3,29.18,North,11,2.1,4.3,70,0.00,,,0.00,WSDL version 420,2013-01-10 10:21:00,
2013-01-10 05:23:00,55.4,45.6,29.18,NNW,338,4.0,4.3,70,0.00,,,0.00,WSDL version 420,2013-01-10 10:23:00,
2013-01-10 05:25:00,55.6,45.9,29.18,ENE,73,2.4,4.3,69,0.00,,,0.00,WSDL version 420,2013-01-10 10:25:00,
2013-01-10 05:29:00,55.7,45.8,29.18,WSW,240,3.6,4.3,69,0.00,,,0.00,WSDL version 420,2013-01-10 10:29:00,
2013-01-10 05:31:00,55.8,45.9,29.18,North,360,2.9,4.0,70,0.00,,,0.00,WSDL version 420,2013-01-10 10:31:00,
2013-01-10 05:35:00,56.1,46.4,29.18,North,11,2.5,3.8,70,0.00,,,0.00,WSDL version 420,2013-01-10 10:35:00,
2013-01-10 05:39:00,56.2,46.4,29.18,North,360,2.5,3.8,69,0.00,,,0.00,WSDL version 420,2013-01-10 10:39:00,
2013-01-10 05:45:00,56.3,46.2,29.18,NW,315,2.5,4.0,69,0.00,,,0.00,WSDL version 420,2013-01-10 10:45:00,
2013-01-10 05:47:00,56.2,46.2,29.18,WSW,248,1.6,4.0,69,0.00,,,0.00,WSDL version 420,2013-01-10 10:47:00,
2013-01-10 05:51:00,56.0,45.8,29.18,WSW,248,0.0,4.0,68,0.00,,,0.00,WSDL version 420,2013-01-10 10:51:00,
2013-01-10 05:53:00,55.8,45.5,29.18,WSW,248,0.0,2.7,68,0.00,,,0.00,WSDL version 420,2013-01-10 10:53:00,
2013-01-10 05:57:00,55.8,45.7,29.18,ENE,60,0.0,3.4,69,0.00,,,0.00,WSDL version 420,2013-01-10 10:57:00,
2013-01-10 05:59:00,55.8,45.8,29.18,SSE,158,0.8,3.6,69,0.00,,,0.00,WSDL version 420,2013-01-10 10:59:00,
2013-01-10 06:03:00,55.4,45.1,29.18,SSW,203,2.2,3.6,68,0.00,,,0.00,WSDL version 420,2013-01-10 11:03:00,
2013-01-10 06:05:00,55.0,44.6,29.18,South,188,1.8,3.6,68,0.00,,,0.00,WSDL version 420,2013-01-10 11:05:00,
2013-01-10 06:09:00,54.5,44.3,29.18,South,180,0.0,3.4,69,0.00,,,0.00,WSDL version 420,2013-01-10 11:09:00,
2013-01-10 06:11:00,54.4,44.3,29.18,South,189,0.0,3.4,69,0.00,,,0.00,WSDL version 420,2013-01-10 11:11:00,
2013-01-10 06:17:00,53.9,44.0,29.18,South,191,1.7,2.9,69,0.00,,,0.00,WSDL version 420,2013-01-10 11:17:00,
2013-01-10 06:19:00,53.8,43.9,29.18,SSW,203,1.8,2.9,69,0.00,,,0.00,WSDL version 420,2013-01-10 11:19:00,
2013-01-10 06:25:00,53.7,44.2,29.18,South,180,2.0,3.4,70,0.00,,,0.00,WSDL version 420,2013-01-10 11:25:00,
2013-01-10 06:27:00,53.6,44.1,29.18,SSW,203,1.5,3.4,71,0.00,,,0.00,WSDL version 420,2013-01-10 11:27:00,
2013-01-10 06:31:00,53.4,44.2,29.18,South,180,0.0,2.9,71,0.00,,,0.00,WSDL version 420,2013-01-10 11:31:00,
2013-01-10 06:33:00,53.3,44.1,29.18,South,180,0.0,2.9,71,0.00,,,0.00,WSDL version 420,2013-01-10 11:33:00,
2013-01-10 06:35:00,53.2,44.1,29.18,South,180,0.0,2.0,71,0.00,,,0.00,WSDL version 420,2013-01-10 11:35:00,
2013-01-10 06:37:00,53.2,44.1,29.18,South,180,0.0,0.0,71,0.00,,,0.00,WSDL version 420,2013-01-10 11:37:00,
2013-01-10 06:39:00,53.2,44.2,29.18,SSE,158,0.0,0.0,72,0.00,,,0.00,WSDL version 420,2013-01-10 11:39:00,
2013-01-10 06:43:00,53.4,44.6,29.18,SSE,152,0.4,1.6,72,0.00,,,0.00,WSDL version 420,2013-01-10 11:43:00,
2013-01-10 06:47:00,53.4,44.6,29.18,South,191,0.5,3.6,72,0.00,,,0.00,WSDL version 420,2013-01-10 11:47:00,
2013-01-10 06:49:00,53.5,44.7,29.18,WSW,253,1.5,3.6,72,0.00,,,0.00,WSDL version 420,2013-01-10 11:49:00,
2013-01-10 06:51:00,53.5,44.7,29.18,SSW,197,0.0,3.6,72,0.00,,,0.00,WSDL version 420,2013-01-10 11:51:00,
2013-01-10 06:55:00,53.2,44.5,29.18,South,180,2.5,3.6,72,0.00,,,0.00,WSDL version 420,2013-01-10 11:55:00,
2013-01-10 06:59:00,53.1,44.3,29.18,South,180,0.0,3.6,73,0.00,,,0.00,WSDL version 420,2013-01-10 11:59:00,
2013-01-10 07:03:00,53.0,44.3,29.18,NE,50,0.0,3.6,72,0.00,,,0.00,WSDL version 420,2013-01-10 12:03:00,
2013-01-10 07:07:00,52.9,44.4,29.18,ESE,107,0.0,0.0,73,0.00,,,0.00,WSDL version 420,2013-01-10 12:07:00,
2013-01-10 07:09:00,52.9,44.4,29.18,NNE,18,0.0,0.0,73,0.00,,,0.00,WSDL version 420,2013-01-10 12:09:00,
2013-01-10 07:11:00,52.8,44.4,29.18,NNW,338,0.0,0.0,73,0.00,,,0.00,WSDL version 420,2013-01-10 12:11:00,
2013-01-10 07:13:00,52.7,44.3,29.18,NNW,338,0.0,0.0,73,0.00,,,0.00,WSDL version 420,2013-01-10 12:13:00,
2013-01-10 07:17:00,52.7,44.3,29.18,NNW,338,0.0,0.0,73,0.00,,,0.00,WSDL version 420,2013-01-10 12:17:00,
2013-01-10 07:19:00,52.7,44.3,29.18,NNW,338,0.0,0.0,73,0.00,,,0.00,WSDL version 420,2013-01-10 12:19:00,
2013-01-10 07:21:00,52.7,44.3,29.18,NNW,338,0.0,0.0,73,0.00,,,0.00,WSDL version 420,2013-01-10 12:21:00,
2013-01-10 07:23:00,52.7,44.3,29.18,NNW,338,0.0,0.0,73,0.00,,,0.00,WSDL version 420,2013-01-10 12:23:00,
2013-01-10 07:27:00,52.7,44.6,29.21,NNW,338,0.0,0.0,74,0.00,,,0.00,WSDL version 420,2013-01-10 12:27:00,
2013-01-10 07:29:00,52.7,44.7,29.21,NNW,338,0.0,0.0,74,0.00,,,0.00,WSDL version 420,2013-01-10 12:29:00,
2013-01-10 07:33:00,52.7,44.7,29.21,NNW,338,0.0,0.0,74,0.00,,,0.00,WSDL version 420,2013-01-10 12:33:00,
2013-01-10 07:35:00,52.6,44.5,29.21,NNW,338,0.0,0.0,73,0.00,,,0.00,WSDL version 420,2013-01-10 12:35:00,
2013-01-10 07:41:00,52.5,44.4,29.21,NNW,338,0.0,0.0,74,0.00,,,0.00,WSDL version 420,2013-01-10 12:41:00,
2013-01-10 07:45:00,52.4,44.3,29.21,NNW,338,0.0,0.0,74,0.00,,,0.00,WSDL version 420,2013-01-10 12:45:00,
2013-01-10 07:47:00,52.3,44.2,29.21,NNW,338,0.0,0.0,73,0.00,,,0.00,WSDL version 420,2013-01-10 12:47:00,
2013-01-10 07:53:00,52.1,43.9,29.21,NE,45,0.0,0.0,73,0.00,,,0.00,WSDL version 420,2013-01-10 12:53:00,
2013-01-10 07:59:00,51.9,43.5,29.21,NNE,23,0.0,0.0,73,0.00,,,0.00,WSDL version 420,2013-01-10 12:59:00,
2013-01-10 08:01:00,51.8,43.5,29.21,NNE,23,0.0,0.0,73,0.00,,,0.00,WSDL version 420,2013-01-10 13:01:00,
2013-01-10 08:05:00,51.8,43.7,29.21,NNE,23,0.0,0.0,74,0.00,,,0.00,WSDL version 420,2013-01-10 13:05:00,
2013-01-10 08:11:00,51.9,43.8,29.21,NNE,23,0.0,0.0,74,0.00,,,0.00,WSDL version 420,2013-01-10 13:11:00,
2013-01-10 08:13:00,51.9,43.9,29.21,NNE,23,0.0,0.0,74,0.00,,,0.00,WSDL version 420,2013-01-10 13:13:00,
2013-01-10 08:15:00,52.0,44.0,29.21,NNE,23,0.0,0.0,74,0.00,,,0.00,WSDL version 420,2013-01-10 13:15:00,
2013-01-10 08:19:00,52.1,44.1,29.21,NNE,23,0.0,0.0,75,0.00,,,0.00,WSDL version 420,2013-01-10 13:19:00,
2013-01-10 08:21:00,52.2,44.3,29.21,NNE,23,0.0,0.0,75,0.00,,,0.00,WSDL version 420,2013-01-10 13:21:00,
2013-01-10 08:23:00,52.2,44.5,29.21,NNE,23,0.0,0.0,75,0.00,,,0.00,WSDL version 420,2013-01-10 13:23:00,
2013-01-10 08:25:00,52.3,44.5,29.21,NNE,23,0.0,0.0,74,0.00,,,0.00,WSDL version 420,2013-01-10 13:25:00,
2013-01-10 08:27:00,52.3,44.4,29.21,NNE,23,0.0,0.0,74,0.00,,,0.00,WSDL version 420,2013-01-10 13:27:00,
2013-01-10 08:31:00,52.2,44.1,29.21,NNE,23,0.0,0.0,74,0.00,,,0.00,WSDL version 420,2013-01-10 13:31:00,
2013-01-10 08:37:00,52.3,44.5,29.21,NNE,23,0.0,0.0,75,0.00,,,0.00,WSDL version 420,2013-01-10 13:37:00,
2013-01-10 08:39:00,52.3,44.6,29.21,NNE,23,0.0,0.0,75,0.00,,,0.00,WSDL version 420,2013-01-10 13:39:00,
2013-01-10 08:41:00,52.4,44.7,29.23,NNE,23,0.0,0.0,75,0.00,,,0.00,WSDL version 420,2013-01-10 13:41:00,
2013-01-10 08:45:00,52.4,44.5,29.23,NNE,23,0.0,0.0,74,0.00,,,0.00,WSDL version 420,2013-01-10 13:45:00,
2013-01-10 08:47:00,52.3,44.4,29.23,NNE,23,0.0,0.0,74,0.00,,,0.00,WSDL version 420,2013-01-10 13:47:00,
2013-01-10 08:51:00,52.5,44.4,29.23,NNE,23,0.0,0.0,74,0.00,,,0.00,WSDL version 420,2013-01-10 13:51:00,
2013-01-10 08:53:00,52.4,44.4,29.23,NNE,23,0.0,0.0,74,0.00,,,0.00,WSDL version 420,2013-01-10 13:53:00,
2013-01-10 08:55:00,52.4,44.3,29.23,NNE,23,0.0,0.0,74,0.00,,,0.00,WSDL version 420,2013-01-10 13:55:00,
2013-01-10 08:57:00,52.3,44.3,29.23,NNE,23,0.0,0.0,74,0.00,,,0.00,WSDL version 420,2013-01-10 13:57:00,
2013-01-10 08:59:00,52.3,44.3,29.23,NNE,23,0.0,0.0,74,0.00,,,0.00,WSDL version 420,2013-01-10 13:59:00,
2013-01-10 09:01:00,52.2,44.2,29.23,NNE,23,0.0,0.0,74,0.00,,,0.00,WSDL version 420,2013-01-10 14:01:00,
2013-01-10 09:05:00,52.2,44.1,29.23,NNE,23,0.0,0.0,74,0.00,,,0.00,WSDL version 420,2013-01-10 14:05:00,
2013-01-10 09:07:00,52.2,44.2,29.23,NNE,23,0.0,0.0,74,0.00,,,0.00,WSDL version 420,2013-01-10 14:07:00,
2013-01-10 09:09:00,52.3,44.3,29.23,North,-999,-999.0,-999.0,74,0.00,,,0.00,WSDL version 420,2013-01-10 14:09:00,
2013-01-10 09:11:00,52.3,44.3,29.23,North,360,0.0,0.0,74,0.00,,,0.00,WSDL version 420,2013-01-10 14:11:00,
2013-01-10 09:15:00,52.4,44.3,29.23,North,360,0.0,0.0,74,0.00,,,0.00,WSDL version 420,2013-01-10 14:15:00,
2013-01-10 09:21:00,52.7,45.0,29.23,WNW,293,0.0,0.0,75,0.00,,,0.00,WSDL version 420,2013-01-10 14:21:00,
2013-01-10 09:23:00,52.8,45.1,29.23,WNW,293,0.0,0.0,75,0.00,,,0.00,WSDL version 420,2013-01-10 14:23:00,
2013-01-10 09:27:00,53.0,45.3,29.26,North,-999,-999.0,-999.0,75,0.00,,,0.00,WSDL version 420,2013-01-10 14:27:00,
2013-01-10 09:29:00,53.1,45.4,29.26,SSW,197,0.0,0.0,75,0.00,,,0.00,WSDL version 420,2013-01-10 14:29:00,
2013-01-10 09:31:00,53.2,45.5,29.26,SSW,203,0.0,0.0,75,0.00,,,0.00,WSDL version 420,2013-01-10 14:31:00,
2013-01-10 09:35:00,53.4,45.7,29.26,South,191,0.0,0.0,75,0.00,,,0.00,WSDL version 420,2013-01-10 14:35:00,
2013-01-10 09:37:00,53.5,45.8,29.26,SSW,203,0.0,0.0,75,0.00,,,0.00,WSDL version 420,2013-01-10 14:37:00,
2013-01-10 09:41:00,53.8,46.1,29.26,North,-999,-999.0,-999.0,75,0.00,,,0.00,WSDL version 420,2013-01-10 14:41:00,
2013-01-10 09:45:00,54.1,46.4,29.26,SSW,203,0.2,2.5,75,0.00,,,0.00,WSDL version 420,2013-01-10 14:45:00,
2013-01-10 09:49:00,54.4,46.6,29.26,SSW,212,0.0,2.5,75,0.00,,,0.00,WSDL version 420,2013-01-10 14:49:00,
2013-01-10 09:51:00,54.5,46.8,29.26,West,275,0.0,2.5,75,0.00,,,0.00,WSDL version 420,2013-01-10 14:51:00,
2013-01-10 09:53:00,54.7,46.9,29.26,SW,218,0.0,0.0,75,0.00,,,0.00,WSDL version 420,2013-01-10 14:53:00,
2013-01-10 09:55:00,54.8,47.0,29.26,South,185,0.8,0.9,75,0.00,,,0.00,WSDL version 420,2013-01-10 14:55:00,
2013-01-10 10:01:00,55.3,47.4,29.26,West,270,0.0,0.9,74,0.00,,,0.00,WSDL version 420,2013-01-10 15:01:00,
2013-01-10 10:07:00,55.8,47.6,29.26,West,270,0.0,0.0,74,0.00,,,0.00,WSDL version 420,2013-01-10 15:07:00,
2013-01-10 10:09:00,55.9,47.8,29.26,West,270,0.0,0.0,74,0.00,,,0.00,WSDL version 420,2013-01-10 15:09:00,
2013-01-10 10:11:00,56.1,47.9,29.26,West,270,0.0,0.0,74,0.00,,,0.00,WSDL version 420,2013-01-10 15:11:00,
2013-01-10 10:15:00,56.4,48.2,29.26,WSW,243,0.0,0.0,74,0.00,,,0.00,WSDL version 420,2013-01-10 15:15:00,
2013-01-10 10:17:00,56.5,48.4,29.26,SW,225,0.0,0.0,74,0.00,,,0.00,WSDL version 420,2013-01-10 15:17:00,
2013-01-10 10:21:00,56.9,48.7,29.26,WNW,288,0.0,0.0,74,0.00,,,0.00,WSDL version 420,2013-01-10 15:21:00,
2013-01-10 10:25:00,57.2,48.7,29.26,SW,225,0.0,3.1,73,0.00,,,0.00,WSDL version 420,2013-01-10 15:25:00,
2013-01-10 10:27:00,57.2,48.7,29.26,West,270,0.0,3.1,73,0.00,,,0.00,WSDL version 420,2013-01-10 15:27:00,
2013-01-10 10:31:00,57.4,48.7,29.26,East,83,0.0,3.1,72,0.00,,,0.00,WSDL version 420,2013-01-10 15:31:00,
2013-01-10 10:33:00,57.5,48.6,29.26,NNE,23,0.0,0.0,72,0.00,,,0.00,WSDL version 420,2013-01-10 15:33:00,
2013-01-10 10:39:00,57.7,48.8,29.26,North,360,0.0,0.0,72,0.00,,,0.00,WSDL version 420,2013-01-10 15:39:00,
2013-01-10 10:43:00,57.9,49.0,29.26,NE,39,0.0,0.0,72,0.00,,,0.00,WSDL version 420,2013-01-10 15:43:00,
2013-01-10 10:45:00,58.0,49.0,29.26,NE,36,0.0,0.0,71,0.00,,,0.00,WSDL version 420,2013-01-10 15:45:00,
2013-01-10 10:49:00,58.2,48.8,29.26,North,360,0.0,0.0,71,0.00,,,0.00,WSDL version 420,2013-01-10 15:49:00,
2013-01-10 10:51:00,58.3,48.9,29.26,NNW,342,0.0,0.0,71,0.00,,,0.00,WSDL version 420,2013-01-10 15:51:00,
2013-01-10 10:53:00,58.4,49.0,29.26,NW,315,0.0,0.0,71,0.00,,,0.00,WSDL version 420,2013-01-10 15:53:00,
2013-01-10 10:59:00,58.6,49.1,29.26,SW,234,0.0,0.0,70,0.00,,,0.00,WSDL version 420,2013-01-10 15:59:00,
2013-01-10 11:01:00,58.7,49.1,29.26,West,270,0.0,0.0,70,0.00,,,0.00,WSDL version 420,2013-01-10 16:01:00,
2013-01-10 11:03:00,58.8,49.0,29.26,NNE,18,0.0,0.0,70,0.00,,,0.00,WSDL version 420,2013-01-10 16:03:00,
2013-01-10 11:07:00,59.0,49.2,29.26,NNE,26,0.0,0.0,70,0.00,,,0.00,WSDL version 420,2013-01-10 16:07:00,
2013-01-10 11:09:00,59.1,49.2,29.26,NE,49,0.0,0.0,69,0.00,,,0.00,WSDL version 420,2013-01-10 16:09:00,
2013-01-10 11:11:00,59.2,49.2,29.26,South,176,0.8,2.7,69,0.00,,,0.00,WSDL version 420,2013-01-10 16:11:00,
2013-01-10 11:15:00,59.4,49.3,29.26,North,9,0.4,2.7,69,0.00,,,0.00,WSDL version 420,2013-01-10 16:15:00,
2013-01-10 11:17:00,59.6,49.4,29.26,NNE,23,2.2,2.7,68,0.00,,,0.00,WSDL version 420,2013-01-10 16:17:00,
2013-01-10 11:19:00,59.7,49.3,29.26,North,360,0.0,2.7,67,0.00,,,0.00,WSDL version 420,2013-01-10 16:19:00,
2013-01-10 11:21:00,59.7,48.9,29.26,NNE,14,0.0,2.7,67,0.00,,,0.00,WSDL version 420,2013-01-10 16:21:00,
2013-01-10 11:27:00,59.7,48.1,29.26,North,11,1.5,2.9,65,0.00,,,0.00,WSDL version 420,2013-01-10 16:27:00,
2013-01-10 11:33:00,59.7,47.9,29.26,North,11,1.3,2.5,64,0.00,,,0.00,WSDL version 420,2013-01-10 16:33:00,
2013-01-10 11:35:00,59.7,47.7,29.26,North,360,0.0,2.5,64,0.00,,,0.00,WSDL version 420,2013-01-10 16:35:00,
2013-01-10 11:39:00,59.9,47.7,29.26,North,360,0.0,1.6,64,0.00,,,0.00,WSDL version 420,2013-01-10 16:39:00,
2013-01-10 11:43:00,60.1,47.9,29.26,NNE,26,0.2,1.3,64,0.00,,,0.00,WSDL version 420,2013-01-10 16:43:00,
2013-01-10 11:45:00,60.2,47.9,29.26,NE,45,0.0,1.3,63,0.00,,,0.00,WSDL version 420,2013-01-10 16:45:00,
2013-01-10 11:51:00,60.5,47.8,29.26,ESE,113,0.0,0.0,62,0.00,,,0.00,WSDL version 420,2013-01-10 16:51:00,
2013-01-10 11:53:00,60.6,47.7,29.26,NNW,338,0.0,0.0,62,0.00,,,0.00,WSDL version 420,2013-01-10 16:53:00,
2013-01-10 11:57:00,60.7,47.4,29.26,WNW,299,0.3,2.5,61,0.00,,,0.00,WSDL version 420,2013-01-10 16:57:00,
2013-01-10 12:03:00,61.2,47.2,29.26,NNW,338,0.0,2.5,60,0.00,,,0.00,WSDL version 420,2013-01-10 17:03:00,
2013-01-10 12:05:00,61.3,47.1,29.26,WSW,248,0.0,1.6,59,0.00,,,0.00,WSDL version 420,2013-01-10 17:05:00,
2013-01-10 12:09:00,61.5,47.0,29.26,WNW,293,0.0,1.6,59,0.00,,,0.00,WSDL version 420,2013-01-10 17:09:00,
2013-01-10 12:11:00,61.8,47.2,29.23,NNW,338,0.0,0.0,59,0.00,,,0.00,WSDL version 420,2013-01-10 17:11:00,
2013-01-10 12:13:00,62.0,47.5,29.23,NNE,23,1.3,2.0,59,0.00,,,0.00,WSDL version 420,2013-01-10 17:13:00,
2013-01-10 12:15:00,62.2,47.6,29.23,SSE,152,0.6,2.2,58,0.00,,,0.00,WSDL version 420,2013-01-10 17:15:00,
2013-01-10 12:17:00,62.3,47.4,29.23,SW,214,0.6,2.2,58,0.00,,,0.00,WSDL version 420,2013-01-10 17:17:00,
2013-01-10 12:19:00,62.3,47.2,29.23,SW,214,0.0,2.2,57,0.00,,,0.00,WSDL version 420,2013-01-10 17:19:00,
2013-01-10 12:23:00,62.3,46.4,29.23,NNE,15,1.2,2.5,55,0.00,,,0.00,WSDL version 420,2013-01-10 17:23:00,
2013-01-10 12:25:00,62.3,46.1,29.23,NNE,23,0.0,2.5,55,0.00,,,0.00,WSDL version 420,2013-01-10 17:25:00,
2013-01-10 12:29:00,62.5,46.1,29.23,North,360,0.0,2.5,55,0.00,,,0.00,WSDL version 420,2013-01-10 17:29:00,
2013-01-10 12:33:00,62.7,46.0,29.23,North,360,0.0,0.0,54,0.00,,,0.00,WSDL version 420,2013-01-10 17:33:00,
2013-01-10 12:35:00,62.7,45.8,29.23,SE,146,0.8,2.9,53,0.00,,,0.00,WSDL version 420,2013-01-10 17:35:00,
2013-01-10 12:37:00,62.6,45.5,29.23,West,270,0.0,2.9,53,0.00,,,0.00,WSDL version 420,2013-01-10 17:37:00,
2013-01-10 12:41:00,62.7,45.4,29.23,North,360,0.0,2.9,53,0.00,,,0.00,WSDL version 420,2013-01-10 17:41:00,
2013-01-10 12:45:00,63.0,45.6,29.23,North,360,0.0,2.0,53,0.00,,,0.00,WSDL version 420,2013-01-10 17:45:00,
2013-01-10 12:47:00,63.2,45.9,29.23,ENE,75,0.0,2.0,53,0.00,,,0.00,WSDL version 420,2013-01-10 17:47:00,
2013-01-10 12:51:00,63.8,46.3,29.23,SW,236,0.0,1.6,53,0.00,,,0.00,WSDL version 420,2013-01-10 17:51:00,
2013-01-10 12:53:00,64.1,46.5,29.23,SW,214,2.0,2.0,52,0.00,,,0.00,WSDL version 420,2013-01-10 17:53:00,
2013-01-10 12:55:00,64.3,46.2,29.21,SW,214,0.7,2.5,51,0.00,,,0.00,WSDL version 420,2013-01-10 17:55:00,
2013-01-10 12:57:00,64.3,45.9,29.21,WSW,248,2.2,2.5,51,0.00,,,0.00,WSDL version 420,2013-01-10 17:57:00,
2013-01-10 13:03:00,63.9,44.9,29.21,NNW,330,1.0,2.5,50,0.00,,,0.00,WSDL version 420,2013-01-10 18:03:00,
2013-01-10 13:05:00,63.9,45.0,29.21,NNE,32,0.0,1.6,51,0.00,,,0.00,WSDL version 420,2013-01-10 18:05:00,
2013-01-10 13:11:00,64.0,45.5,29.21,North,-999,-999.0,-999.0,51,0.00,,,0.00,WSDL version 420,2013-01-10 18:11:00,
2013-01-10 13:13:00,64.0,45.5,29.21,North,360,0.9,2.9,51,0.00,,,0.00,WSDL version 420,2013-01-10 18:13:00,
2013-01-10 13:17:00,64.1,45.3,29.21,NNW,347,1.6,2.9,50,0.00,,,0.00,WSDL version 420,2013-01-10 18:17:00,
2013-01-10 13:19:00,64.3,45.1,29.21,NNW,338,1.0,2.9,50,0.00,,,0.00,WSDL version 420,2013-01-10 18:19:00,
2013-01-10 13:21:00,64.3,45.1,29.21,NNW,338,0.7,2.9,50,0.00,,,0.00,WSDL version 420,2013-01-10 18:21:00,
2013-01-10 13:27:00,64.3,44.6,29.21,North,360,1.8,2.7,49,0.00,,,0.00,WSDL version 420,2013-01-10 18:27:00,
2013-01-10 13:29:00,64.2,44.7,29.21,North,360,1.3,2.7,49,0.00,,,0.00,WSDL version 420,2013-01-10 18:29:00,
2013-01-10 13:35:00,64.4,44.9,29.21,West,270,0.3,2.7,49,0.00,,,0.00,WSDL version 420,2013-01-10 18:35:00,
2013-01-10 13:37:00,64.5,44.9,29.21,WNW,293,0.0,1.1,49,0.00,,,0.00,WSDL version 420,2013-01-10 18:37:00,
2013-01-10 13:39:00,64.6,45.0,29.21,NNW,343,0.0,1.1,49,0.00,,,0.00,WSDL version 420,2013-01-10 18:39:00,
2013-01-10 13:45:00,64.8,45.2,29.21,West,270,0.0,1.1,49,0.00,,,0.00,WSDL version 420,2013-01-10 18:45:00,
2013-01-10 13:47:00,64.9,45.3,29.21,NNW,344,0.0,1.1,49,0.00,,,0.00,WSDL version 420,2013-01-10 18:47:00,
2013-01-10 13:53:00,65.3,45.7,29.21,WNW,293,0.0,0.9,49,0.00,,,0.00,WSDL version 420,2013-01-10 18:53:00,
2013-01-10 13:57:00,65.5,45.6,29.18,SW,236,1.1,1.6,48,0.00,,,0.00,WSDL version 420,2013-01-10 18:57:00,
2013-01-10 14:01:00,65.6,45.5,29.18,North,349,0.3,1.6,49,0.00,,,0.00,WSDL version 420,2013-01-10 19:01:00,
2013-01-10 14:03:00,65.7,45.6,29.18,North,360,0.2,1.6,48,0.00,,,0.00,WSDL version 420,2013-01-10 19:03:00,
2013-01-10 14:05:00,65.8,45.7,29.18,SSW,194,0.0,1.3,48,0.00,,,0.00,WSDL version 420,2013-01-10 19:05:00,
2013-01-10 14:09:00,66.0,45.8,29.18,South,183,0.2,2.0,48,0.00,,,0.00,WSDL version 420,2013-01-10 19:09:00,
2013-01-10 14:11:00,66.1,45.7,29.18,ESE,122,0.0,2.0,48,0.00,,,0.00,WSDL version 420,2013-01-10 19:11:00,
2013-01-10 14:13:00,66.1,45.5,29.18,NW,308,0.0,2.0,47,0.00,,,0.00,WSDL version 420,2013-01-10 19:13:00,
2013-01-10 14:15:00,66.0,45.3,29.18,North,360,1.4,2.7,47,0.00,,,0.00,WSDL version 420,2013-01-10 19:15:00,
2013-01-10 14:17:00,65.9,45.1,29.18,NNW,338,0.0,2.7,47,0.00,,,0.00,WSDL version 420,2013-01-10 19:17:00,
2013-01-10 14:19:00,65.8,45.0,29.18,WSW,257,0.0,2.7,47,0.00,,,0.00,WSDL version 420,2013-01-10 19:19:00,
2013-01-10 14:21:00,65.8,45.0,29.18,North,360,0.0,2.7,47,0.00,,,0.00,WSDL version 420,2013-01-10 19:21:00,
2013-01-10 14:25:00,65.7,44.9,29.18,North,360,0.0,0.0,47,0.00,,,0.00,WSDL version 420,2013-01-10 19:25:00,
2013-01-10 14:27:00,65.8,45.0,29.18,North,360,0.0,0.0,47,0.00,,,0.00,WSDL version 420,2013-01-10 19:27:00,
2013-01-10 14:29:00,65.8,45.1,29.18,North,-999,-999.0,-999.0,47,0.00,,,0.00,WSDL version 420,2013-01-10 19:29:00,
2013-01-10 14:31:00,65.8,45.1,29.18,NW,311,0.0,0.0,47,0.00,,,0.00,WSDL version 420,2013-01-10 19:31:00,
2013-01-10 14:33:00,65.8,45.1,29.18,North,360,0.4,2.0,47,0.00,,,0.00,WSDL version 420,2013-01-10 19:33:00,
2013-01-10 14:35:00,65.8,45.1,29.18,North,360,2.0,2.2,47,0.00,,,0.00,WSDL version 420,2013-01-10 19:35:00,
2013-01-10 14:39:00,65.9,45.2,29.18,NE,54,0.0,2.2,47,0.00,,,0.00,WSDL version 420,2013-01-10 19:39:00,
2013-01-10 14:41:00,66.0,45.2,29.18,NNE,23,0.0,2.2,47,0.00,,,0.00,WSDL version 420,2013-01-10 19:41:00,
2013-01-10 14:45:00,66.0,45.1,29.18,SSE,158,0.9,2.2,46,0.00,,,0.00,WSDL version 420,2013-01-10 19:45:00,
2013-01-10 14:51:00,66.2,44.8,29.18,SE,124,0.0,1.6,46,0.00,,,0.00,WSDL version 420,2013-01-10 19:51:00,
2013-01-10 14:53:00,66.1,44.8,29.18,SSW,203,1.0,2.5,46,0.00,,,0.00,WSDL version 420,2013-01-10 19:53:00,
2013-01-10 14:59:00,66.2,44.7,29.18,NNE,14,0.8,2.5,46,0.00,,,0.00,WSDL version 420,2013-01-10 19:59:00,
2013-01-10 15:01:00,66.3,44.8,29.18,SSW,195,0.0,2.5,46,0.00,,,0.00,WSDL version 420,2013-01-10 20:01:00,
2013-01-10 15:05:00,66.4,44.6,29.18,SSE,158,0.0,1.6,45,0.00,,,0.00,WSDL version 420,2013-01-10 20:05:00,
2013-01-10 15:07:00,66.4,44.4,29.18,North,360,0.0,1.6,45,0.00,,,0.00,WSDL version 420,2013-01-10 20:07:00,
2013-01-10 15:13:00,66.4,44.4,29.18,NNE,23,1.5,2.7,45,0.00,,,0.00,WSDL version 420,2013-01-10 20:13:00,
2013-01-10 15:15:00,66.3,44.4,29.18,North,360,1.0,2.7,45,0.00,,,0.00,WSDL version 420,2013-01-10 20:15:00,
2013-01-10 15:21:00,66.1,44.2,29.18,North,360,0.0,1.6,45,0.00,,,0.00,WSDL version 420,2013-01-10 20:21:00,
2013-01-10 15:25:00,66.0,44.3,29.21,North,360,0.0,0.0,45,0.00,,,0.00,WSDL version 420,2013-01-10 20:25:00,
2013-01-10 15:29:00,66.0,44.1,29.21,North,353,0.0,0.0,45,0.00,,,0.00,WSDL version 420,2013-01-10 20:29:00,
2013-01-10 15:33:00,66.0,44.1,29.21,NW,315,0.0,0.0,45,0.00,,,0.00,WSDL version 420,2013-01-10 20:33:00,
2013-01-10 15:35:00,65.9,44.1,29.21,NW,315,0.0,0.0,46,0.00,,,0.00,WSDL version 420,2013-01-10 20:35:00,
2013-01-10 15:39:00,65.8,44.0,29.21,NNE,23,0.0,0.9,45,0.00,,,0.00,WSDL version 420,2013-01-10 20:39:00,
2013-01-10 15:43:00,65.6,44.0,29.18,North,353,0.0,0.9,45,0.00,,,0.00,WSDL version 420,2013-01-10 20:43:00,
2013-01-10 15:49:00,65.5,44.0,29.18,North,8,0.0,0.0,46,0.00,,,0.00,WSDL version 420,2013-01-10 20:49:00,
2013-01-10 15:55:00,65.5,44.1,29.21,North,-999,-999.0,-999.0,45,0.00,,,0.00,WSDL version 420,2013-01-10 20:55:00,
2013-01-10 15:57:00,65.5,43.9,29.21,WNW,293,0.0,0.0,46,0.00,,,0.00,WSDL version 420,2013-01-10 20:57:00,
2013-01-10 16:03:00,65.5,44.0,29.21,NNW,342,0.0,0.0,45,0.00,,,0.00,WSDL version 420,2013-01-10 21:03:00,
2013-01-10 16:05:00,65.5,44.0,29.21,North,360,0.0,0.0,46,0.00,,,0.00,WSDL version 420,2013-01-10 21:05:00,
2013-01-10 16:11:00,65.3,43.8,29.21,SE,146,0.0,0.0,45,0.00,,,0.00,WSDL version 420,2013-01-10 21:11:00,
2013-01-10 16:13:00,65.2,43.7,29.21,South,180,0.0,0.0,46,0.00,,,0.00,WSDL version 420,2013-01-10 21:13:00,
2013-01-10 16:17:00,65.5,44.0,29.21,East,90,0.0,0.0,46,0.00,,,0.00,WSDL version 420,2013-01-10 21:17:00,
2013-01-10 16:20:00,65.6,43.8,29.21,North,-999,-999.0,-999.0,45,0.00,,,0.00,WSDL version 420,2013-01-10 21:20:00,
2013-01-10 16:24:00,65.4,43.5,29.21,North,360,0.0,0.0,45,0.00,,,0.00,WSDL version 420,2013-01-10 21:24:00,
2013-01-10 16:28:00,65.2,43.3,29.18,NE,38,0.0,0.0,45,0.00,,,0.00,WSDL version 420,2013-01-10 21:28:00,
2013-01-10 16:32:00,64.9,43.1,29.18,East,90,0.0,0.0,45,0.00,,,0.00,WSDL version 420,2013-01-10 21:32:00,
2013-01-10 16:34:00,64.8,42.9,29.18,East,90,0.0,0.0,45,0.00,,,0.00,WSDL version 420,2013-01-10 21:34:00,
2013-01-10 16:38:00,64.4,42.6,29.18,NNE,23,0.0,0.0,45,0.00,,,0.00,WSDL version 420,2013-01-10 21:38:00,
2013-01-10 16:40:00,64.3,42.6,29.21,North,-999,-999.0,-999.0,45,0.00,,,0.00,WSDL version 420,2013-01-10 21:40:00,
2013-01-10 16:44:00,64.0,42.5,29.21,North,360,0.0,0.0,46,0.00,,,0.00,WSDL version 420,2013-01-10 21:44:00,
2013-01-10 16:46:00,63.9,42.5,29.21,North,360,0.0,0.0,46,0.00,,,0.00,WSDL version 420,2013-01-10 21:46:00,
2013-01-10 16:50:00,63.6,42.4,29.21,North,360,0.0,0.0,46,0.00,,,0.00,WSDL version 420,2013-01-10 21:50:00,
2013-01-10 16:52:00,63.4,42.3,29.21,North,360,0.0,0.0,46,0.00,,,0.00,WSDL version 420,2013-01-10 21:52:00,
2013-01-10 16:56:00,63.2,42.1,29.18,East,90,0.0,0.0,46,0.00,,,0.00,WSDL version 420,2013-01-10 21:56:00,
2013-01-10 16:58:00,63.1,42.0,29.18,East,90,0.0,0.0,46,0.00,,,0.00,WSDL version 420,2013-01-10 21:58:00,
2013-01-10 17:02:00,63.0,41.9,29.18,SSE,158,0.0,0.0,46,0.00,,,0.00,WSDL version 420,2013-01-10 22:02:00,
2013-01-10 17:04:00,62.9,41.8,29.18,SSE,158,0.0,0.0,46,0.00,,,0.00,WSDL version 420,2013-01-10 22:04:00,
2013-01-10 17:10:00,62.7,42.0,29.18,South,180,0.0,0.0,47,0.00,,,0.00,WSDL version 420,2013-01-10 22:10:00,
2013-01-10 17:12:00,62.6,42.1,29.18,South,180,0.0,0.0,47,0.00,,,0.00,WSDL version 420,2013-01-10 22:12:00,
2013-01-10 17:18:00,62.3,41.8,29.18,South,180,0.0,0.0,47,0.00,,,0.00,WSDL version 420,2013-01-10 22:18:00,
2013-01-10 17:20:00,62.2,41.9,29.18,South,180,0.0,0.0,48,0.00,,,0.00,WSDL version 420,2013-01-10 22:20:00,
2013-01-10 17:24:00,61.9,42.1,29.18,South,180,0.0,0.0,48,0.00,,,0.00,WSDL version 420,2013-01-10 22:24:00,
2013-01-10 17:26:00,61.8,41.9,29.18,South,180,0.0,0.0,48,0.00,,,0.00,WSDL version 420,2013-01-10 22:26:00,
2013-01-10 18:00:00,60.4,42.0,29.18,South,180,0.0,0.0,51,0.00,,,0.00,WSDL version 420,2013-01-10 23:00:00,
2013-01-10 18:02:00,60.4,42.2,29.18,South,180,0.0,0.0,51,0.00,,,0.00,WSDL version 420,2013-01-10 23:02:00,
2013-01-10 18:04:00,60.4,42.2,29.18,South,180,0.0,0.0,51,0.00,,,0.00,WSDL version 420,2013-01-10 23:04:00,
2013-01-10 18:06:00,60.3,42.1,29.18,South,180,0.0,0.0,51,0.00,,,0.00,WSDL version 420,2013-01-10 23:06:00,
2013-01-10 18:10:00,60.0,41.9,29.18,South,180,0.0,0.0,51,0.00,,,0.00,WSDL version 420,2013-01-10 23:10:00,
2013-01-10 18:12:00,60.0,42.0,29.18,South,180,0.0,0.0,52,0.00,,,0.00,WSDL version 420,2013-01-10 23:12:00,
2013-01-10 18:16:00,59.8,42.1,29.18,South,180,0.0,0.0,52,0.00,,,0.00,WSDL version 420,2013-01-10 23:16:00,
2013-01-10 18:18:00,59.7,42.1,29.18,South,180,0.0,0.0,52,0.00,,,0.00,WSDL version 420,2013-01-10 23:18:00,
2013-01-10 18:24:00,59.4,41.8,29.18,South,180,0.0,0.0,52,0.00,,,0.00,WSDL version 420,2013-01-10 23:24:00,
2013-01-10 18:30:00,59.2,42.1,29.18,South,180,0.0,0.0,53,0.00,,,0.00,WSDL version 420,2013-01-10 23:30:00,
2013-01-10 18:32:00,59.1,42.0,29.18,South,180,0.0,0.0,53,0.00,,,0.00,WSDL version 420,2013-01-10 23:32:00,
2013-01-10 18:36:00,58.9,42.1,29.18,South,180,0.0,0.0,54,0.00,,,0.00,WSDL version 420,2013-01-10 23:36:00,
2013-01-10 18:40:00,58.8,42.2,29.15,South,180,0.0,0.0,54,0.00,,,0.00,WSDL version 420,2013-01-10 23:40:00,
2013-01-10 18:42:00,58.8,42.2,29.15,South,180,0.0,0.0,54,0.00,,,0.00,WSDL version 420,2013-01-10 23:42:00,
2013-01-10 18:46:00,58.8,42.2,29.15,North,-999,-999.0,-999.0,54,0.00,,,0.00,WSDL version 420,2013-01-10 23:46:00,
2013-01-10 18:51:00,58.6,42.3,29.15,South,180,0.0,0.0,55,0.00,,,0.00,WSDL version 420,2013-01-10 23:51:00,
2013-01-10 18:57:00,58.4,42.3,29.15,South,180,0.0,0.0,55,0.00,,,0.00,WSDL version 420,2013-01-10 23:57:00,
2013-01-10 18:59:00,58.3,42.3,29.15,South,180,0.0,0.0,55,0.00,,,0.00,WSDL version 420,2013-01-10 23:59:00,
2013-01-10 19:03:00,58.3,42.2,29.15,South,180,0.0,0.0,55,0.00,,,0.00,WSDL version 420,2013-01-11 00:03:00,
2013-01-10 19:09:00,58.1,42.0,29.15,South,180,0.0,0.0,55,0.00,,,0.00,WSDL version 420,2013-01-11 00:09:00,
2013-01-10 19:13:00,58.0,41.9,29.15,South,180,0.0,0.0,55,0.00,,,0.00,WSDL version 420,2013-01-11 00:13:00,
2013-01-10 19:15:00,57.9,41.9,29.15,South,180,0.0,0.0,56,0.00,,,0.00,WSDL version 420,2013-01-11 00:15:00,
2013-01-10 19:21:00,57.8,42.2,29.15,South,180,0.0,0.0,56,0.00,,,0.00,WSDL version 420,2013-01-11 00:21:00,
2013-01-10 19:25:00,57.6,42.1,29.15,South,180,0.0,0.0,56,0.00,,,0.00,WSDL version 420,2013-01-11 00:25:00,
2013-01-10 19:29:00,57.5,41.9,29.15,South,180,0.0,0.0,56,0.00,,,0.00,WSDL version 420,2013-01-11 00:29:00,
2013-01-10 19:35:00,57.2,42.1,29.15,South,180,0.0,0.0,57,0.00,,,0.00,WSDL version 420,2013-01-11 00:35:00,
2013-01-10 19:41:00,57.1,42.3,29.15,North,-999,-999.0,-999.0,58,0.00,,,0.00,WSDL version 420,2013-01-11 00:41:00,
2013-01-10 19:47:00,56.8,42.2,29.15,South,180,0.0,0.0,58,0.00,,,0.00,WSDL version 420,2013-01-11 00:47:00,
2013-01-10 19:49:00,56.8,42.3,29.15,North,-999,-999.0,-999.0,59,0.00,,,0.00,WSDL version 420,2013-01-11 00:49:00,
2013-01-10 19:53:00,56.8,42.7,29.15,North,-999,-999.0,-999.0,59,0.00,,,0.00,WSDL version 420,2013-01-11 00:53:00,
2013-01-10 19:57:00,56.8,42.7,29.15,South,180,0.0,0.0,59,0.00,,,0.00,WSDL version 420,2013-01-11 00:57:00,
2013-01-10 19:59:00,56.8,42.7,29.15,South,180,0.0,0.0,59,0.00,,,0.00,WSDL version 420,2013-01-11 00:59:00,
2013-01-10 20:05:00,56.8,42.8,29.15,North,-999,-999.0,-999.0,60,0.00,,,0.00,WSDL version 420,2013-01-11 01:05:00,
2013-01-10 20:11:00,56.8,43.1,29.15,South,180,0.0,0.0,60,0.00,,,0.00,WSDL version 420,2013-01-11 01:11:00,
2013-01-10 20:17:00,56.8,43.1,29.15,North,0,0.0,0.0,60,0.00,,,0.00,WSDL version 420,2013-01-11 01:17:00,
2013-01-10 20:23:00,56.8,43.1,29.15,South,180,0.0,0.0,60,0.00,,,0.00,WSDL version 420,2013-01-11 01:23:00,
2013-01-10 20:25:00,56.8,43.1,29.15,SSE,158,0.0,0.0,60,0.00,,,0.00,WSDL version 420,2013-01-11 01:25:00,
2013-01-10 20:31:00,56.9,43.2,29.15,South,180,0.0,0.0,60,0.00,,,0.00,WSDL version 420,2013-01-11 01:31:00,
2013-01-10 20:37:00,56.8,43.1,29.15,South,180,0.0,0.0,60,0.00,,,0.00,WSDL version 420,2013-01-11 01:37:00,
2013-01-10 20:39:00,56.8,43.1,29.15,South,180,0.0,0.0,60,0.00,,,0.00,WSDL version 420,2013-01-11 01:39:00,
2013-01-10 20:43:00,57.1,43.1,29.15,NW,315,0.0,0.0,59,0.00,,,0.00,WSDL version 420,2013-01-11 01:43:00,
2013-01-10 20:45:00,57.2,43.1,29.15,West,278,0.4,0.0,59,0.00,,,0.00,WSDL version 420,2013-01-11 01:45:00,
2013-01-10 20:49:00,57.4,43.2,29.15,South,189,0.0,0.0,59,0.00,,,0.00,WSDL version 420,2013-01-11 01:49:00,
2013-01-10 20:51:00,57.5,43.2,29.15,WNW,297,0.0,0.0,58,0.00,,,0.00,WSDL version 420,2013-01-11 01:51:00,
2013-01-10 20:57:00,57.6,42.9,29.15,South,180,2.0,2.7,58,0.00,,,0.00,WSDL version 420,2013-01-11 01:57:00,
2013-01-10 21:03:00,57.6,42.9,29.15,South,180,1.8,3.1,58,0.00,,,0.00,WSDL version 420,2013-01-11 02:03:00,
2013-01-10 21:05:00,57.6,42.9,29.15,South,180,1.3,3.1,58,0.00,,,0.00,WSDL version 420,2013-01-11 02:05:00,
2013-01-10 21:09:00,57.6,42.9,29.15,SSE,161,0.0,3.1,58,0.00,,,0.00,WSDL version 420,2013-01-11 02:09:00,
2013-01-10 21:15:00,57.7,42.6,29.15,South,174,0.3,2.2,57,0.00,,,0.00,WSDL version 420,2013-01-11 02:15:00,
2013-01-10 21:17:00,57.7,42.6,29.15,SSE,158,0.7,2.2,57,0.00,,,0.00,WSDL version 420,2013-01-11 02:17:00,
2013-01-10 21:23:00,57.8,42.3,29.15,South,169,0.0,2.2,56,0.00,,,0.00,WSDL version 420,2013-01-11 02:23:00,
2013-01-10 21:25:00,57.8,42.3,29.15,South,180,0.0,2.2,56,0.00,,,0.00,WSDL version 420,2013-01-11 02:25:00,
2013-01-10 21:31:00,57.9,42.0,29.15,South,169,0.0,0.0,55,0.00,,,0.00,WSDL version 420,2013-01-11 02:31:00,
2013-01-10 21:33:00,57.9,41.9,29.15,SSE,158,0.0,0.0,55,0.00,,,0.00,WSDL version 420,2013-01-11 02:33:00,
2013-01-10 21:37:00,57.9,41.9,29.15,South,180,0.0,0.0,55,0.00,,,0.00,WSDL version 420,2013-01-11 02:37:00,
2013-01-10 21:39:00,57.9,41.9,29.15,South,180,0.0,0.0,55,0.00,,,0.00,WSDL version 420,2013-01-11 02:39:00,
2013-01-10 21:45:00,57.9,41.7,29.15,NE,45,0.0,0.0,54,0.00,,,0.00,WSDL version 420,2013-01-11 02:45:00,
2013-01-10 21:47:00,58.0,41.3,29.15,NE,45,0.0,0.0,53,0.00,,,0.00,WSDL version 420,2013-01-11 02:47:00,
2013-01-10 21:51:00,58.1,41.1,29.15,NNE,27,0.0,0.0,53,0.00,,,0.00,WSDL version 420,2013-01-11 02:51:00,
2013-01-10 21:53:00,58.1,41.1,29.15,NW,308,0.0,0.0,53,0.00,,,0.00,WSDL version 420,2013-01-11 02:53:00,
2013-01-10 21:55:00,58.1,41.1,29.15,South,169,0.0,0.0,53,0.00,,,0.00,WSDL version 420,2013-01-11 02:55:00,
2013-01-10 22:01:00,57.9,41.2,29.15,South,180,0.0,2.0,54,0.00,,,0.00,WSDL version 420,2013-01-11 03:01:00,
2013-01-10 22:07:00,57.7,41.5,29.15,North,0,0.0,1.3,55,0.00,,,0.00,WSDL version 420,2013-01-11 03:07:00,
2013-01-10 22:11:00,57.6,41.2,29.12,SSW,203,0.0,0.0,54,0.00,,,0.00,WSDL version 420,2013-01-11 03:11:00,
2013-01-10 22:17:00,57.6,41.2,29.12,SE,135,0.0,0.0,54,0.00,,,0.00,WSDL version 420,2013-01-11 03:17:00,
2013-01-10 22:21:00,57.5,41.3,29.12,South,191,0.0,1.6,55,0.00,,,0.00,WSDL version 420,2013-01-11 03:21:00,
2013-01-10 22:25:00,57.3,41.6,29.12,SSE,158,0.7,2.9,56,0.00,,,0.00,WSDL version 420,2013-01-11 03:25:00,
2013-01-10 22:29:00,57.2,41.4,29.12,SSE,161,0.0,2.9,55,0.00,,,0.00,WSDL version 420,2013-01-11 03:29:00,
2013-01-10 22:31:00,57.2,41.4,29.12,SSE,158,0.0,2.9,56,0.00,,,0.00,WSDL version 420,2013-01-11 03:31:00,
2013-01-10 22:37:00,57.2,41.3,29.12,South,188,0.0,2.5,56,0.00,,,0.00,WSDL version 420,2013-01-11 03:37:00,
2013-01-10 22:39:00,57.1,41.3,29.12,SW,233,0.7,2.5,56,0.00,,,0.00,WSDL version 420,2013-01-11 03:39:00,
2013-01-10 22:45:00,57.0,41.0,29.12,WSW,248,0.0,2.5,55,0.00,,,0.00,WSDL version 420,2013-01-11 03:45:00,
2013-01-10 22:47:00,57.1,40.9,29.12,NE,36,0.0,0.0,54,0.00,,,0.00,WSDL version 420,2013-01-11 03:47:00,
2013-01-10 22:51:00,57.2,40.7,29.12,SE,124,0.0,0.0,54,0.00,,,0.00,WSDL version 420,2013-01-11 03:51:00,
2013-01-10 22:55:00,57.0,40.6,29.12,North,5,0.8,2.0,53,0.00,,,0.00,WSDL version 420,2013-01-11 03:55:00,
2013-01-10 22:57:00,57.1,40.4,29.12,NE,50,0.0,2.0,53,0.00,,,0.00,WSDL version 420,2013-01-11 03:57:00,
2013-01-10 23:01:00,57.1,40.5,29.12,SSE,152,1.0,2.7,54,0.00,,,0.00,WSDL version 420,2013-01-11 04:01:00,
2013-01-10 23:03:00,57.1,40.6,29.12,SSE,165,0.4,2.7,54,0.00,,,0.00,WSDL version 420,2013-01-11 04:03:00,
2013-01-10 23:05:00,57.0,40.5,29.12,North,360,0.0,2.7,53,0.00,,,0.00,WSDL version 420,2013-01-11 04:05:00,
2013-01-10 23:09:00,57.0,40.4,29.12,South,180,1.3,2.7,54,0.00,,,0.00,WSDL version 420,2013-01-11 04:09:00,
2013-01-10 23:11:00,57.0,40.4,29.12,South,186,0.0,2.7,54,0.00,,,0.00,WSDL version 420,2013-01-11 04:11:00,
2013-01-10 23:15:00,56.8,40.8,29.12,South,176,0.0,1.3,56,0.00,,,0.00,WSDL version 420,2013-01-11 04:15:00,
2013-01-10 23:21:00,56.5,40.9,29.12,South,180,0.0,0.0,57,0.00,,,0.00,WSDL version 420,2013-01-11 04:21:00,
2013-01-10 23:23:00,56.4,41.2,29.12,West,270,0.0,0.0,57,0.00,,,0.00,WSDL version 420,2013-01-11 04:23:00,
2013-01-10 23:29:00,56.0,41.8,29.12,SSW,195,0.0,0.0,60,0.00,,,0.00,WSDL version 420,2013-01-11 04:29:00,
2013-01-10 23:31:00,55.9,42.0,29.12,South,174,0.0,0.0,60,0.00,,,0.00,WSDL version 420,2013-01-11 04:31:00,
2013-01-10 23:37:00,55.7,42.9,29.12,South,180,0.0,1.6,63,0.00,,,0.00,WSDL version 420,2013-01-11 04:37:00,
2013-01-10 23:39:00,55.6,43.0,29.12,South,180,0.8,1.6,63,0.00,,,0.00,WSDL version 420,2013-01-11 04:39:00,
2013-01-10 23:45:00,55.3,43.7,29.12,South,180,0.0,1.6,65,0.00,,,0.00,WSDL version 420,2013-01-11 04:45:00,
2013-01-10 23:47:00,55.2,43.8,29.12,South,180,0.0,0.9,66,0.00,,,0.00,WSDL version 420,2013-01-11 04:47:00,
2013-01-10 23:53:00,54.9,44.0,29.12,NE,45,0.0,0.0,67,0.00,,,0.00,WSDL version 420,2013-01-11 04:53:00,
2013-01-10 23:59:00,54.7,44.4,29.09,South,180,0.0,0.0,68,0.00,,,0.00,WSDL version 420,2013-01-11 04:59:00,